This is the latest recevied weather packets stored in our database for station/object W1GK. If no packets are shown the sender has not sent any weather packets the latest 10 day(s).
| Time | Temp. | Humidity | Pressure | Rain* | Wind** | Luminosity | Snow |
|---|---|---|---|---|---|---|---|
| 1787795999 | 40.56° C | 12% | 1012 hPa | 0 mm | - | 12 W/m² | - |
| 1787795397 | 40.56° C | 12% | 1011.9 hPa | 0 mm | - | 16 W/m² | - |
| 1787794796 | 41.11° C | 12% | 1011.9 hPa | 0 mm | - | 21 W/m² | - |
| 1787794196 | 41.67° C | 11% | 1011.9 hPa | 0 mm | - | 104 W/m² | - |
| 1787793596 | 41.67° C | 11% | 1012 hPa | 0 mm | - | 128 W/m² | - |
| 1787792997 | 42.22° C | 11% | 1012 hPa | 0 mm | - | 158 W/m² | - |
| 1787792400 | 42.22° C | 11% | 1012 hPa | 0 mm | - | 190 W/m² | - |
| 1787791797 | 42.22° C | 11% | 1012 hPa | 0 mm | - | 216 W/m² | - |
| 1787791198 | 42.78° C | 11% | 1012 hPa | 0 mm | - | 250 W/m² | - |
| 1787790597 | 43.33° C | 11% | 1012 hPa | 0 mm | - | 281 W/m² | - |
| 1787789997 | 43.89° C | 11% | 1012.1 hPa | 0 mm | - | 316 W/m² | - |
| 1787789398 | 43.89° C | 10% | 1012.2 hPa | 0 mm | - | 278 W/m² | - |
| 1787788799 | 43.89° C | 11% | 1012.2 hPa | 0 mm | - | 380 W/m² | - |
| 1787788198 | 43.89° C | 11% | 1012.4 hPa | 0 mm | - | 432 W/m² | - |
| 1787787598 | 43.33° C | 11% | 1012.5 hPa | 0 mm | - | 348 W/m² | - |
| 1787786998 | 44.44° C | 10% | 1012.4 hPa | 0 mm | - | 487 W/m² | - |
| 1787786398 | 45° C | 10% | 1012.4 hPa | 0 mm | - | 561 W/m² | - |
| 1787785796 | 44.44° C | 10% | 1012.4 hPa | 0 mm | - | 489 W/m² | - |
| 1787785196 | 45° C | 10% | 1012.5 hPa | 0 mm | - | 564 W/m² | - |
| 1787784597 | 45° C | 10% | 1012.7 hPa | 0 mm | - | 668 W/m² | - |
| 1787783997 | 44.44° C | 11% | 1012.8 hPa | 0 mm | - | 155 W/m² | - |
| 1787783398 | 44.44° C | 10% | 1012.8 hPa | 0 mm | - | 677 W/m² | - |
| 1787782796 | 45° C | 10% | 1013 hPa | 0 mm | - | 670 W/m² | - |
| 1787782198 | 45° C | 10% | 1013.1 hPa | 0 mm | - | 657 W/m² | - |
| 1787781596 | 44.44° C | 11% | 1013.3 hPa | 0 mm | - | 707 W/m² | - |
* Rain latest hour (hover to see other rain measurements)
** Current wind speed in m/s (hover to see current wind gust speed)